STARLINK-34559, 64706

Orbit data source: Space-Track

STARLINK-34559, 64706 is a payload satellite owned by SpaceX/Seattle (US) in LEO that was launched on Sat, 28 Jun 2025 UTC via an FALCON 9 launch vehicle from the Air Force Western Test Range (AFWTR). Payload-class satellites include a variety of spacecraft equipped with specific instruments for various scientific and technological missions. These include communications satellites like Starlink; space stations such as the ISS; scientific satellites like the Hubble; Earth observation satellites from companies like Planet Labs, Umbra, and HawkEye 360; GPS; miniature CubeSats for education and research; and military/defense satellites.

Loading next visibility...
Identifier
64706, 2025-142L
Orbit
LEO
Last TLE update
3 hours ago
Origin
Manufacturer
SpaceX/Seattle
Mission
Operational spacecraft
Bus & Motor
STARLINK V2MO, Unknown motor
Mass
575 kg wet, ~530 kg dry
Launch date (UTC)
2025-06-28 (3 weeks ago)
Launch vehicle
FALCON 9
Launch site
Air Force Western Test Range (AFWTR)
Object type
Payload
Rocket body
Debris
Shape & HBR
Unknown
Radar Cross Section
Large (>1 m²)

Expand to show TLE details & history

TLE from 3 hours ago
0 STARLINK-34559
1 64706U 25142L   25199.58335648 -.01244355  00000-0 -21534-1 0  9997
2 64706  69.9998 194.6484 0003810 274.9214 175.3116 15.53409489  4165
Epoch: 2025-07-18T14:00Z
TLE epoch observation values (Epoch: 2025-07-18T14:00:01.999Z)
Latitude
70.10105°
Longitude
138.69966°
Altitude
420.839 km
Speed
7.664 km/s
True Right ascension
19h 01m 21s
True Declination
69° 59' 07"
Sunlit
Object was in daylight at epoch
Visualization orbit readout
Latitude
6.15087°
Longitude
-134.62189°
Altitude
410.237 km
Speed
7.665 km/s
Apparent Right ascension
22h 12m 42s
Apparent Declination
-23° 26' 22"
Sunlit
Object is in daylight
Visualization observer readout
Local Sidereal Time
06:13:33
Azimuth
269.362° W
Elevation
-37.544°
Doppler factor
1
Orbital elements
Apogee altitude
407.262 km
Perigee altitude
402.094 km
Semi-major axis
6,782.815 km
Eccentricity
0.00038
Inclination
69.9998°
RAAN
194.6484°
Arg. of periapsis
274.9214°
True anomaly
175.31517°
Mean anomaly
175.3116°
Eccentric anomaly
175.31338°
Mean motion
3.88533 °/min
Orbital period
92.66 mins
BSTAR
-0.021534
Loading maneuver chart data...
Loading SW <> Apogee altitude chart data...
Loading historical data...
Loading historical data...
Loading historical data...
Loading historical data...
Loading historical data...
Loading historical data...
Loading historical data...
|